Tracking 20623 objects as of 4-Apr-2020
HD Live streaming from Space Station
objects crossing your sky now

CZ-4 DEB

Track CZ-4 DEB now!
10-day predictions


NORAD ID: 35378
Int'l Code: 2006-046L
Perigee: 577.0 km
Apogee: 816.5 km
Inclination: 97.9 °
Period: 98.6 minutes
Semi major axis: 7067 km
RCS: 0.0012 m2 (small)
Launch date: October 23, 2006
Source: People's Republic of China (PRC)
Launch site: Taiyaun Space Center, China (TSC)

Note: This is SATELLITE DEBRIS
aabbcc
Your satellite tracking list
Your tracking list is empty




NASA's NSSDC Master Catalog

Two Line Element Set (TLE):
1 35378U 06046L   20095.08728580 +.00000404 +00000-0 +76166-4 0  9994
2 35378 097.8999 210.2684 0169442 003.8947 356.3529 14.61095751706352
Source of the keplerian elements: AFSPC